COSMOS 2251 DEB, 34962

Orbit data source: Space-Track

COSMOS 2251 DEB, 34962 is space debris in LEO originally from a launch on Wed, 16 Jun 1993 UTC launched from the Plesetsk Missile And Space Complex (PKMTR). The debris from Iridium 33, an American commercial communications satellite, has been tracked extensively since its accidental collision with the defunct Russian satellite Cosmos 2251 in 2009. This event, occurring at high speed in low Earth orbit (LEO), generated thousands of pieces of space debris, significantly increasing the risk of further collisions. The Iridium 33 debris cloud has impacted space traffic management and orbital debris mitigation strategies, making it a subject of ongoing study in space situational awareness.

Loading next visibility...
Identifier
34962, 1993-036AER
Orbit
LEO
Country
Flag of CISCIS
Related business
Manufacturer
Unknown
Mission
Spacecraft
Bus & Motor
Unknown
Mass
Unknown
Launch date (UTC)
1993-06-16 (33 years ago)
Launch vehicle
Unknown
Launch site
Plesetsk Missile And Space Complex (PKMTR)
Object type
Payload
Rocket body
Debris
Shape & HBR
Unknown shape, 0.1 m
Radar Cross Section
Small (<0.1 m²)

Expand to show TLE details & history
Last TLE update: 2 days ago

TLE from 2 days ago
0 COSMOS 2251 DEB
1 34962U 93036AER 26206.22247393  .00001269  00000-0  35407-3 0  9993
2 34962  74.0312 133.7700 0018874 197.5567 162.4942 14.47190857908250
Epoch: 2026-07-25T05:20Z
TLE epoch observation values (Epoch: 2026-07-25T05:20:21.747Z)
Latitude
-0.00001°
Longitude
110.74153°
Altitude
750.27 km
Speed
7.473 km/s
True Right ascension
08h 55m 04s
True Declination
0° 00' 00"
Sunlit
Object was in daylight at epoch
Visualization orbit readout
Latitude
Unknown
Longitude
Unknown
Altitude
Unknown
Speed
Unknown
Apparent Right ascension
Unknown
Apparent Declination
Unknown
Sunlit
N/A
Visualization observer readout
Local Sidereal Time
00:02:01
Azimuth
Unknown
Elevation
Unknown
Doppler factor
Unknown
Orbital elements
Apogee altitude
745.871 km
Perigee altitude
719.03 km
Semi-major axis
7,110.587 km
Eccentricity
0.00189
Inclination
74.0312°
RAAN
133.77°
Arg. of periapsis
197.5567°
True anomaly
162.55911°
Mean anomaly
162.4942°
Eccentric anomaly
162.52667°
Mean motion
3.6198 °/min
Orbital period
99.45 mins
BSTAR
0.00035407
Loading maneuver chart data...
Computing Atmospheric mass density...

Documentation

Showing up to 5 results
|